Retour au catalogue

STARLINK-3174

ActifCommunicationsVLEO
NORAD 51468·PAYLOAD·🇺🇸 United States

Lancé Feb 3, 2022 depuis Cape Canaveral Space Force Station

Loading…

Prochains Passages (prochaines 24 heures)

TLE

FraisSource: CelesTrak SupGP

Époque: Sep 15, 2026, 00:50 UTC

1 51468C 22010N   26258.03520833  .00020101  00000+0  59417-3 0  2586
2 51468  53.1596 140.9290 0001252  83.0217  57.5819 15.34365993    15

Suivez STARLINK-3174 en temps réel avec AllMySat

Download on the App Store